Terminal Aerodrome Forecast
Issued by NWS Tallahassee, FL

Home | Current Version | Previous Version | Text Only | Print | Product List | Glossary On
Versions: 1 2 3 4 5 6 7 8 9 10 11 12 13 14 15 16 17 18 19 20 21
010
FTUS42 KTAE 290242 AAA
TAFTLH
TAF AMD
KTLH 290242Z 2903/2924 17004KT P6SM OVC004
     FM291000 00000KT 1SM BR BKN002
     FM291400 18008KT P6SM SCT035=

USA.gov is the U.S. government's official web portal to all federal, state and local government web resources and services.